www.pogodaiklimat.ru

Погода и климат >> Архив погоды >> Россия >> Хабаровский край >> Тумнин


ПОГОДА в Тумнине

  • Прогноз погоды в Тумнине
  • Монитор погоды в Тумнине

АРХИВ ПОГОДЫ в Тумнине

Время (UTC), дата Ветер
(напр.,м/с)
 
Видим.   Явления Облачность Т
(С)
Тd
(С)
f
(%)
Тe
(С)
Тes
(С)
Комфортность P
(гПа)
Po
(гПа)
Тmin
(С)
Tmax
(С)
R
(мм)
R24
(мм)
S
(см)
09 10.07 В 1 50 км 10/10 1000 м
[Cb cap]
+16.3 -2.9 27 +17 +17 1014.5 1007.6 +23.3
12 10.07 СВ 1 50 км 10/10 1000 м
[Cb cap]
+3.7 +6.2 100 +2 +2 1015.0 1008.1
15 10.07 ЮЗ 2 50 км 10/10 1000 м
[Cb cap]
+13.4 +8.5 72 +13 +13 1014.5 1007.5
18 10.07 штиль 0 50 км 8/4 1000 м
[Cb cap Ac trans]
+11.9 +9.7 86 +11 +11 1013.9 1006.9
21 10.07 штиль 0 50 км 10/6 1000 м
[Cb cap Ac trans]
+12.5 +9.6 82 +12 +13 1013.1 1006.2 +11.5
00 11.07 ЮВ 1 50 км 8/0
[Ac trans Cc]
+20.5 +7.6 43 +23 +33 комфорт 1011.3 1004.5
03 11.07 ЮЗ 2 50 км гроза без осадков 9/6 1000 м
[Cb cap Ac trans]
+27.2 -1.1 16 +25 +29 комфорт 1008.3 1001.7
06 11.07 С 1 10 км гроза, ливневой дождь 10/8 600 м
[Cb cap Ac trans]
+19.7 +12.3 62 +22 +23 комфорт 1009.0 1002.3
09 11.07 ЮЗ 2 10 км слаб. ливневой дождь {гроза} 10/8 1000 м
[Cb cap Ac trans]
+17.9 +15.1 84 +18 +19 1008.7 1001.9 +28.1 3
12 11.07 штиль 0 50 км {гроза, ливн. осадки} 10/6 1000 м
[Cb cap Ac trans]
+15.5 +13.6 88 +15 +15 1009.0 1002.1
15 11.07 ЮЗ 2 50 км 10/10 1000 м
[Cb cap]
+13.5 +12.1 91 +13 +13 1008.1 1001.2
18 11.07 З 2 20 км {ливн. осадки} 10/10 1000 м
[Cb cap]
+13.0 +10.9 87 +12 +12 1007.9 1001.0
21 11.07 ЮЗ 1 500 м туман {ливн. осадки} ?/? +13.2 +13.2 100 +13 +13 1007.8 1000.9 +12.8 0.9
00 12.07 Ю 1 500 м туман ?/? +16.0 +12.5 80 +17 +17 1007.1 1000.3
03 12.07 С 1 20 км {туман} 10/10 600 м
[Cb cap]
+20.8 +13.2 62 +24 +24 комфорт 1005.9 999.2
06 12.07 СВ 3 50 км {туман} 10/10 1000 м
[Cb cap]
+17.4 +8.2 55 +17 +17 1006.1 999.3
09 12.07 СВ 2 10 км слаб. дождь 10/10 600 м
[Frnb Ns]
+13.8 +10.8 82 +13 +13 1007.6 1000.7 +21.2 0.6
12 12.07 штиль 0 20 км {дождь} 10/10 600 м
[St]
+13.0 +12.3 96 +12 +12 1009.0 1002.1
15 12.07 В 1 500 м туман ?/? +12.6 +12.6 100 +12 +12 1008.7 1001.8
18 12.07 штиль 0 500 м слаб. дождь {туман} туман ?/? +12.5 +12.5 100 +12 +12 1008.5 1001.6
21 12.07 штиль 0 500 м туман {дождь} ?/? +13.1 +13.1 100 +12 +12 1009.1 1002.2 +12.5 2
00 13.07 штиль 0 10 км в посл. час туман {дождь} 10/10 1000 м
[Sc]
+15.0 +12.4 84 +15 +15 1009.2 1002.3
03 13.07 В 1 50 км 10/10 1000 м
[Cb cap]
+16.7 +13.0 79 +18 +18 1009.1 1002.3
06 13.07 В 1 50 км 10/10 1000 м
[Cb cap]
+17.2 +12.4 73 +18 +18 1008.9 1002.1
09 13.07 СВ 1 50 км 10/10 1000 м
[Cb cap]
+16.6 +12.5 77 +17 +17 1009.0 1002.2 +17.2
12 13.07 штиль 0 50 км 10/10 1000 м
[Cb cap]
+15.0 +12.9 87 +15 +15 1010.2 1003.3
15 13.07 штиль 0 50 км {ливн. осадки} 10/10 1000 м
[Cb cap]
+14.6 +13.3 92 +14 +14 1010.6 1003.7
18 13.07 штиль 0 500 м туман {ливн. осадки} ?/? +14.3 +12.9 91 +14 +14 1010.8 1003.9
21 13.07 штиль 0 500 м туман ?/? +15.4 +15.4 100 +15 +15 1011.3 1004.4 +14.2 0.1
00 14.07 ЮЗ 1 50 км {туман} 10/10 1000 м
[Cb cap]
+16.2 +12.9 81 +17 +17 1011.9 1005.1
03 14.07 ЮЗ 2 50 км 10/10 1000 м
[Cb cap]
+17.6 +12.1 70 +18 +18 1012.4 1005.6
06 14.07 Ю 1 50 км 10/10 1000 м
[Cb cap]
+19.3 +8.9 51 +21 +21 комфорт 1012.2 1005.4
09 14.07 Ю 1 50 км 9/9 1000 м
[Cb cap]
+18.7 +2.2 33 +20 +20 1012.7 1005.9 +19.7
12 14.07 ЮЗ 1 50 км 10/10 1000 м
[Cb cap]
+16.6 +7.0 53 +18 +18 1014.0 1007.1
15 14.07 штиль 0 50 км 10/10 1000 м
[Cb cap]
+15.1 +11.9 81 +15 +15 1014.2 1007.3
18 14.07 штиль 0 50 км 10/10 1000 м
[Cb cap]
+14.6 +11.8 83 +14 +14 1014.2 1007.3
21 14.07 ЮЗ 1 50 км 10/10 1000 м
[Cb cap]
+15.1 +11.7 80 +16 +16 1014.8 1007.9 +14.4
00 15.07 Ю 2 50 км 9/6 1000 м
[Cb cap Ac trans Ci fib]
+19.2 +10.8 58 +21 +24 комфорт 1014.6 1007.8
03 15.07 ЮЗ 2 50 км 6/0
[Ac trans Ci fib]
+23.3 -10.1 10 +21 +34 комфорт 1013.4 1006.6
06 15.07 ЮВ 2 50 км 6/1 1000 м
[Cb cap Ac trans Ci fib]
+24.5 -1.5 18 +23 +29 комфорт 1012.3 1005.6
09 15.07 Ю 1 50 км 4/0
[Ci fib]
+21.7 +4.9 33 +22 +23 комфорт 1012.6 1005.8 +25.7
12 15.07 штиль 0 50 км ясно +13.3 +7.1 66 +13 +13 1014.1 1007.1
15 15.07 штиль 0 50 км ясно +10.3 +9.2 93 +10 +10 1014.5 1007.5
18 15.07 штиль 0 20 км ясно +8.7 +8.7 100 +8 +8 1014.2 1007.1
21 15.07 В 1 500 м туман ?/? +10.3 +10.3 100 +10 +10 1014.5 1007.4 +8.6
00 16.07 СВ 1 50 км {туман} 8/1 1000 м
[Cb cap Ci fib]
+20.2 +7.8 45 +22 +33 комфорт 1013.1 1006.3
03 16.07 С 1 50 км 8/6 1000 м
[Cb cap Ci fib]
+25.7 -2.5 15 +24 +31 комфорт 1010.8 1004.1
06 16.07 ЮЗ 2 50 км {гроза} 10/8 1000 м
[Cb cap Ac trans Ci fib]
+25.5 -15.9 5 +22 +23 комфорт 1010.8 1004.1
09 16.07 ЮЗ 2 50 км 6/1 1000 м
[Cb cap Ac trans Ci fib]
+22.6 -4.3 16 +21 +22 комфорт 1010.1 1003.4 +28.5
12 16.07 ЮЗ 1 50 км 8/4 1000 м
[Sc Ac trans]
+18.3 -0.5 28 +19 +19 1011.3 1004.4
15 16.07 ЮЗ 1 50 км 8/4 1000 м
[Sc Ac trans]
+15.7 +4.8 48 +17 +17 1011.2 1004.3
18 16.07 ЮЗ 1 50 км 10/10 1000 м
[Sc]
+14.1 +9.7 75 +14 +14 1011.0 1004.1
21 16.07 ЮЗ 1 50 км 10/8 1000 м
[Sc Ac trans]
+14.8 +10.5 75 +15 +16 1010.9 1004.0 +13.7
00 17.07 ЮВ 1 50 км 4/0
[Ac trans]
+22.7 +5.0 32 +23 +34 комфорт 1009.6 1002.9
03 17.07 ЮЗ 2 50 км 6/3 1000 м
[Cb cap Ac trans Ci fib]
+29.8 -8.9 7 +26 +35 жарко 1007.3 1000.7
06 17.07 Ю 2 50 км гроза без осадков 8/6 1000 м
[Cb cap Ci fib]
+25.1 +1.0 21 +24 +27 комфорт 1007.4 1000.7

 

Местоположение метеостанции Тумнин (Хабаровский край, Россия): широта 49.65 долгота 140.00 высота над уровнем моря 58 м.

В архиве по умолчанию представлена погода в Тумнине за последнюю неделю. Архивные данные за месяц целиком и за предыдущие месяцы, начиная с января 2011 года, Вы можете получить, выбрав интересующий диапазон дат из раскрывающегося списка и нажав кнопку "Ввод!".


*Определитесь, кто Вы:
робот инопланетянин человек

Внимание! Время в таблицах - всемирное. Для получения местного времени необходимо прибавить поправку, которая равна 10 ч.

Смотрите также архив погоды в соседних городах и на ближайших метеорологических станциях:

Погода в Советской Гавани (Хабаровский край, Россия) (75 км)
Погода в Мопау (Хабаровский край, Россия) (97 км)
Погода в Сегжеме (Хабаровский край, Россия) (138 км)
Погода в Солекуль (Хабаровский край, Россия) (154 км)
Погода в Пильво (Сахалинская область, Россия) (157 км)
Погода в Углегорске (Сахалинская область, Россия) (159 км)
Погода в Оноре (Сахалинская область, Россия) (190 км)
Погода в Циммермановка (Хабаровский край, Россия) (195 км)
Погода в Нижнетамбовском (Хабаровский край, Россия) (195 км)
Погода в Александровске-Сахалинском (Сахалинская область, Россия) (204 км)

Пояснения к столбцам:

Ветер - указаны скорость ветра в м/с - средняя за 10 мин, порывы в срок и между сроками (в фигурных скобках) и направление, откуда дует ветер: С - северный, СВ - северо-восточный, В - восточный, ЮВ - юго-восточный, Ю - южный, ЮЗ - юго-западный, З - западный, СЗ - северо-западный.
Видимость - горизонтальная дальность видимости в метрах или километрах. При видимости от 1 до 10 км при отсутствии осадков обычно наблюдается дымка, при ухудшении видимости до 1 км и менее - туман. В сухую погоду видимость может ухудшаться дымом, пылью или мглою.
Явления - указаны атмосферные явления, наблюдавшиеся в срок или в последний час перед сроком; фигурными скобками обозначены явления, наблюдавшиеся между сроками (за 1-3 часа до срока); квадратными скобками обозначены град или гололедные отложения с указанием их диаметра в мм.
Облачность - указаны через наклонную черту общая и нижняя облачность в баллах и высота нижней границы облаков в метрах; квадратными скобками обозначены формы облаков: Ci - перистые, Cs - перисто-слоистые, Cc - перисто-кучевые, Ac - высококучевые, As - высокослоистые, Sc - слоисто-кучевые, Ns - слоисто-дождевые, Cu - кучевые, Cb - кучево-дождевые. Подробнее классификацию облаков см. в Атласе облаков (PDF).
T - Температура воздуха - температура, измеренная на высоте 2 м над землей.
Td - Температура точки росы - температура, при понижении до которой содержащийся в воздухе водяной пар достигнет насыщения.
f - Относительная влажность воздуха - влажноcть воздуха, измеренная на высоте 2 м над землей.
Te - Эффективная температура - температура, которую ощущает одетый по сезону человек в тени. Характеристика душности погоды. При расчете учитывается влияние влажности воздуха и скорости ветра на теплоощущения человека.
Tes - Эффективная температура на солнце - температура, которую ощущает человек, с поправкой на солнечный нагрев. Характеристика знойности погоды. Зависит от высоты солнца над горизонтом, облачности и скорости ветра. Ночью, в пасмурную погоду, а также при ветре 12 м/с и более поправка равна нулю.
P - Атмосферное давление - приведенное к уровню моря атмосферное давление.
Po - Атмосферное давление - измеренное на уровне метеостанции атмосферное давление.
Tmin - Минимальная температура - минимум температуры воздуха на высоте 2 м над землей.
Tmax - Максимальная температура - максимум температуры воздуха на высоте 2 м над землей.
R - Количество осадков - Количество выпавших осадков за период времени, мм. При наведении курсора мыши на число - период времени, за который выпало указанное количество осадков.
R24 - Количество осадков - Количество выпавших осадков за 24 часа, мм.
S - Снежный покров - Высота снежного покрова, см. При наведении курсора мыши на число - состояние снежного покрова и степень покрытия местности в баллах.